Regional Weather Roundup
Issued by NWS Burlington, VT

Current Version | Previous Version | Text Only | Print | Product List | Glossary On
Versions: 1 2 3 4 5 6 7 8 9 10 11 12 13 14 15 16 17 18 19 20 21 22 23 24 25 26 27 28 29 30 31 32 33 34 35 36 37 38 39 40 41 42 43 44 45 46 47 48 49 50
000
ASUS41 KBTV 042230
RWRBTV
VERMONT REGIONAL WEATHER ROUNDUP
NATIONAL WEATHER SERVICE BURLINGTON VT
500 PM EST SUN DEC 04 2016

NOTE: "FAIR" INDICATES FEW OR NO CLOUDS BELOW 12,000 FEET WITH NO
SIGNIFICANT WEATHER AND/OR OBSTRUCTIONS TO VISIBILITY.

* THESE REPORTS ARE NOT UNDER NWS QUALITY CONTROL AND/OR DO NOT
  REPORT WEATHER SUCH AS PRECIPITATION AND FOG.

VTZ001>019-042300-
_____VERMONT_____


CITY           SKY/WX    TMP DP  RH WIND       PRES   REMARKS
BURLINGTON     MOCLDY    33  21  61 NE5       30.22F WCI  29
MONTPELIER     MOCLDY    27  20  75 CALM      30.22S
MORRISVILLE    CLOUDY    29  20  69 N5        30.22S WCI  24
ST. JOHNSBURY*   N/A     30  19  63 MISG      30.19S
LYNDONVILLE*   CLOUDY    26  20  76 N3        30.20S
MIDDLEBURY*    FAIR      28  20  71 CALM      30.21S
RUTLAND*       CLEAR     25  19  78 CALM      30.20S
SPRINGFIELD    CLEAR     28  17  63 CALM      30.20F
HIGHGATE*      CLOUDY    29  22  75 CALM      30.23F
NEWPORT*       FAIR      23  18  81 NW3       30.20F
BENNINGTON     CLEAR     27  19  72 CALM      30.18S
SUTTON*          N/A     25 N/A N/A MISG        N/A
ISLAND POND*     N/A     25 N/A N/A NW1         N/A
GALLUP MILLS*    N/A     23 N/A N/A MISG        N/A
UNION VILLAGE*   N/A     27 N/A N/A MISG        N/A
MT. MANSFIELD*   N/A     16 N/A N/A CALM        N/A

_____LAKE CHAMPLAIN_____


CITY           SKY/WX    TMP DP  RH WIND       PRES   REMARKS
BURTON ISLAND*   N/A     34  25  69 N1          N/A
COLCHESTER RF*   N/A     36  27  69 NW12        N/A  WCI  27
DIAMOND ISL*     N/A     36  27  69 NE8         N/A  WCI  29

$$

NYZ007-026>031-035-052-083-087-042300-
_____NORTHERN NEW YORK_____


CITY           SKY/WX    TMP DP  RH WIND       PRES   REMARKS
PLATTSBURGH    CLOUDY    33  20  58 NW5       30.23S WCI  29
SARANAC LAKE   CLOUDY    23  18  81 CALM      30.14F
MASSENA        CLEAR     28  19  69 CALM      30.24F
OGDENSBURG*    MOCLDY    30  21  69 CALM      30.23S
POTSDAM*       CLOUDY    28  23  80 CALM      30.22S
STARK FALLS*     N/A     25 N/A N/A SE6         N/A  WCI  18
WATERTOWN      CLEAR     26  20  77 NE7       30.21F WCI  18
FT DRUM        CLEAR     27  20  76 E5        30.19S WCI  21
ALBANY         PTCLDY    27  18  69 SW5       30.23S WCI  22
GLENS FALLS    CLEAR     29  21  72 CALM      30.22S

$$
NHZ002-005-011-042300-
_____NEW HAMPSHIRE_____


CITY           SKY/WX    TMP DP  RH WIND       PRES   REMARKS
LEBANON        CLEAR     30  21  69 N3        30.19S
KEENE          MIX PCPN  31  21  66 CALM      30.19S
MT WASHINGTON  MOCLDY    10  -4  52 N21G29      N/A  WCI  -9
PLYMOUTH         N/A     30  20  66 NW5       30.19S WCI  26
WHITEFIELD     MOCLDY    28  16  60 NW6       30.18S WCI  22

$$

_____REGIONAL QUEBEC LOCATIONS_____


CITY           SKY/WX    TMP DP  RH WIND       PRES   REMARKS
MONTREAL       PTCLDY    30  19  64 SW6       30.23F WCI  24
QUEBEC CITY    CLEAR     19  14  79 W6        30.21R WCI  11
SHERBROOKE     CLOUDY    23  18  80 NW3       30.21R

_____REGIONAL ONTARIO LOCATIONS_____


CITY           SKY/WX    TMP DP  RH WIND       PRES   REMARKS
OTTAWA         PTCLDY    27  18  69 S2        30.22S

______KEY______
VSB  - VISIBILITY IN MILES
WCI  - WIND CHILL INDEX
HX   - HEAT INDEX
$$
NNNN




USA.gov is the U.S. government's official web portal to all federal, state and local government web resources and services.